VA2EYZ-13 Weather Reports


time (UTC)temp
C
wind
direction
speed
KPH
gust
KPH
rain 1hr
cm
rain 24hr
cm
rain mn
cm
humidity
%
barometer
mb
20260505122358 12 0.0 0.0 0.00 0.00 0.00 34 1001.0
20260505121208 12 0.0 0.0 0.00 0.00 0.00 34 1002.0
20260505120403 12 0.0 0.0 0.00 0.00 0.00 34 1002.3
20260505115403 12 0.0 0.0 0.00 0.00 0.00 31 1002.0
20260505113653 12 0.0 0.0 0.00 0.00 0.00 30 1002.0
20260505110248 11 0.0 0.0 0.00 0.00 0.00 30 1001.0
20260505101744 11 0.0 0.0 0.00 0.00 0.00 30 1001.0
20260505095930 11 0.0 0.0 0.00 0.00 0.00 30 1001.1
20260505093704 11 0.0 0.0 0.00 0.00 0.00 30 1001.0
20260505090402 11 0.0 0.0 0.00 0.00 0.00 30 1001.7
20260505080402 11 0.0 0.0 0.00 0.00 0.00 30 1001.0
20260505072442 11 0.0 0.0 0.00 0.00 0.00 30 1001.0
20260505070940 11 0.0 0.0 0.00 0.00 0.00 30 1001.9
20260505070402 11 0.0 0.0 0.00 0.00 0.00 30 1002.0
20260505061301 12 0.0 0.0 0.00 0.00 0.00 29 1002.0
20260505060402 12 0.0 0.0 0.00 0.00 0.00 29 1001.0
20260505055801 12 0.0 0.0 0.00 0.00 0.00 30 1001.0
20260505052830 12 0.0 0.0 0.00 0.00 0.00 30 1002.0
20260505051350 12 0.0 0.0 0.00 0.00 0.00 30 1002.4
20260505040354 12 0.0 0.0 0.00 0.00 0.00 30 1003.0
20260505031908 12 0.0 0.0 0.00 0.00 0.00 32 1003.0
20260505030354 12 0.0 0.0 0.00 0.00 0.00 32 1003.0
20260505024313 12 0.0 0.0 0.00 0.00 0.00 32 1003.0
20260505021846 12 0.0 0.0 0.00 0.00 0.00 32 1003.2
20260505020354 12 0.0 0.0 0.00 0.00 0.00 32 1003.3
20260505011925 12 0.0 0.0 0.00 0.00 0.00 32 1003.3
20260505010354 12 0.0 0.0 0.00 0.00 0.00 32 1003.0
20260505005317 12 0.0 0.0 0.00 0.00 0.00 30 1003.0
20260505002114 12 0.0 0.0 0.00 0.00 0.00 30 1003.4
20260505000355 12 0.0 0.0 0.00 0.00 0.00 30 1003.0
20260504232908 13 0.0 0.0 0.00 0.00 0.00 29 1003.0
20260504232403 13 0.0 0.0 0.00 0.00 0.00 29 1003.3
20260504230354 13 0.0 0.0 0.00 0.00 0.00 29 1003.3
20260504222412 13 0.0 0.0 0.00 0.00 0.00 28 1003.3
20260504220911 13 0.0 0.0 0.00 0.00 0.00 28 1003.0
20260504220354 13 0.0 0.0 0.00 0.00 0.00 28 1003.2
20260504212712 14 0.0 0.0 0.00 0.00 0.00 28 1003.2
20260504210354 14 0.0 0.0 0.00 0.00 0.00 28 1003.0
20260504203919 13 0.0 0.0 0.00 0.00 0.00 28 1003.0
20260504202850 13 0.0 0.0 0.00 0.00 0.00 28 1003.4
20260504200354 13 0.0 0.0 0.00 0.00 0.00 28 1003.0
20260504195507 13 0.0 0.0 0.00 0.00 0.00 30 1003.0
20260504193533 13 0.0 0.0 0.00 0.00 0.00 30 1003.0
20260504190354 13 0.0 0.0 0.00 0.00 0.00 30 1004.0
20260504184255 12 0.0 0.0 0.00 0.00 0.00 34 1004.8
20260504181049 12 0.0 0.0 0.00 0.00 0.00 34 1004.0
20260504180354 12 0.0 0.0 0.00 0.00 0.00 34 1005.0
20260504173644 11 0.0 0.0 0.00 0.00 0.00 37 1005.0
20260504171036 11 0.0 0.0 0.00 0.00 0.00 37 1005.4
20260504170354 11 0.0 0.0 0.00 0.00 0.00 37 1005.0
20260504160354 11 0.0 0.0 0.00 0.00 0.00 40 1005.5
20260504150354 10 0.0 0.0 0.00 0.00 0.00 44 1005.4
20260504140356 10 0.0 0.0 0.00 0.00 0.00 44 1005.0